• In Russia
  • List of Countries
  • For 7 days
  • Water Temperature
  • Satellite Maps
  • Weather Map
  • Weather Widgets
  • user-avatar
    Login

    Hourly Weather Neuquén

    Today, 17 December, Sunday

    Time Temperature Precipitation Wind Pressure Humidity
    00:00 +12°C° 0 mm 12 mps 734 mmHg 30%
    01:00 +11°C° 0 mm 11 mps 735 mmHg 31%
    02:00 +11°C° 0 mm 10 mps 735 mmHg 33%
    03:00 +10°C° 0 mm 9 mps 736 mmHg 34%
    04:00 +10°C° 0 mm 8 mps 737 mmHg 35%
    05:00 +11°C° 0 mm 7 mps 737 mmHg 31%
    06:00 +13°C° 0 mm 6 mps 738 mmHg 28%
    07:00 +14°C° 0 mm 5 mps 738 mmHg 24%
    08:00 +15°C° 0 mm 4 mps 739 mmHg 21%
    09:00 +17°C° 0 mm 2 mps 739 mmHg 18%
    10:00 +19°C° 0 mm 1 mps 739 mmHg 15%
    11:00 +21°C° 0 mm 1 mps 738 mmHg 13%
    12:00 +22°C° 0 mm 1 mps 738 mmHg 12%
    13:00 +23°C° 0 mm 1 mps 737 mmHg 11%
    14:00 +24°C° 0 mm 2 mps 737 mmHg 10%
    15:00 +25°C° 0 mm 2 mps 736 mmHg 9%
    16:00 +26°C° 0 mm 3 mps 735 mmHg 9%
    17:00 +25°C° 0 mm 3 mps 735 mmHg 9%
    18:00 +25°C° 0 mm 4 mps 735 mmHg 9%
    19:00 +25°C° 0 mm 4 mps 735 mmHg 9%
    20:00 +23°C° 0 mm 5 mps 735 mmHg 9%
    21:00 +23°C° 0 mm 5 mps 735 mmHg 10%
    22:00 +22°C° 0 mm 6 mps 735 mmHg 10%
    23:00 +22°C° 0 mm 6 mps 735 mmHg 11%

    Tomorrow, 18 December, Monday

    Time Temperature Precipitation Wind Pressure Humidity
    00:00 +21°C° 0 mm 5 mps 734 mmHg 13%
    01:00 +21°C° 0 mm 5 mps 733 mmHg 14%
    02:00 +20°C° 0 mm 5 mps 733 mmHg 15%
    03:00 +20°C° 0 mm 5 mps 733 mmHg 16%
    04:00 +19°C° 0 mm 5 mps 732 mmHg 17%
    05:00 +21°C° 0 mm 5 mps 733 mmHg 17%
    06:00 +22°C° 0 mm 6 mps 733 mmHg 17%
    07:00 +24°C° 0 mm 7 mps 733 mmHg 17%
    08:00 +27°C° 0 mm 7 mps 733 mmHg 16%
    09:00 +28°C° 0 mm 7 mps 733 mmHg 15%
    10:00 +30°C° 0 mm 7 mps 732 mmHg 14%
    11:00 +32°C° 0 mm 7 mps 732 mmHg 13%
    12:00 +34°C° 0 mm 6 mps 731 mmHg 12%
    13:00 +35°C° 0 mm 6 mps 731 mmHg 11%
    14:00 +35°C° 0 mm 5 mps 730 mmHg 10%
    15:00 +36°C° 0 mm 4 mps 730 mmHg 10%
    16:00 +36°C° 0 mm 3 mps 730 mmHg 9%
    17:00 +35°C° 0 mm 3 mps 730 mmHg 10%
    18:00 +34°C° 0 mm 2 mps 730 mmHg 10%
    19:00 +32°C° 0 mm 2 mps 730 mmHg 11%
    20:00 +31°C° 0 mm 3 mps 731 mmHg 13%
    21:00 +30°C° 0 mm 3 mps 731 mmHg 15%
    22:00 +29°C° 0 mm 4 mps 731 mmHg 17%
    23:00 +29°C° 0 mm 4 mps 731 mmHg 21%

    Day after tomorrow, 19 December, Tuesday

    Time Temperature Precipitation Wind Pressure Humidity
    00:00 +28°C° 0 mm 4 mps 731 mmHg 25%
    01:00 +27°C° 0 mm 4 mps 731 mmHg 28%
    02:00 +26°C° 0 mm 4 mps 731 mmHg 30%
    03:00 +25°C° 0 mm 3 mps 731 mmHg 32%
    04:00 +25°C° 0 mm 3 mps 731 mmHg 33%
    05:00 +26°C° 0 mm 3 mps 732 mmHg 31%
    06:00 +27°C° 0 mm 3 mps 732 mmHg 29%
    07:00 +28°C° 0 mm 3 mps 732 mmHg 26%
    08:00 +30°C° 0 mm 3 mps 732 mmHg 24%
    09:00 +31°C° 0 mm 3 mps 732 mmHg 22%
    10:00 +34°C° 0 mm 3 mps 732 mmHg 20%
    11:00 +35°C° 0 mm 3 mps 731 mmHg 17%
    12:00 +36°C° 0 mm 3 mps 730 mmHg 14%
    13:00 +37°C° 0 mm 3 mps 730 mmHg 11%
    14:00 +38°C° 0 mm 4 mps 729 mmHg 10%
    15:00 +38°C° 0 mm 4 mps 729 mmHg 9%
    16:00 +40°C° 0 mm 4 mps 728 mmHg 7%
    17:00 +38°C° 0 mm 4 mps 728 mmHg 8%
    18:00 +37°C° 0 mm 3 mps 728 mmHg 8%
    19:00 +36°C° 0 mm 2 mps 728 mmHg 9%
    20:00 +34°C° 0 mm 5 mps 729 mmHg 12%
    21:00 +33°C° 0 mm 7 mps 729 mmHg 14%
    22:00 +32°C° 0 mm 9 mps 730 mmHg 17%
    23:00 +29°C° 0 mm 9 mps 729 mmHg 20%

    20 December, Wednesday

    Time Temperature Precipitation Wind Pressure Humidity
    00:00 +28°C° 0 mm 8 mps 729 mmHg 23%
    01:00 +27°C° 0 mm 7 mps 729 mmHg 26%
    02:00 +26°C° 0 mm 7 mps 729 mmHg 28%
    03:00 +24°C° 0 mm 7 mps 729 mmHg 31%
    04:00 +23°C° 0 mm 6 mps 729 mmHg 34%
    05:00 +24°C° 0 mm 7 mps 729 mmHg 32%
    06:00 +26°C° 0 mm 8 mps 730 mmHg 30%
    07:00 +27°C° 0 mm 9 mps 730 mmHg 28%
    08:00 +29°C° 0 mm 9 mps 730 mmHg 24%
    09:00 +32°C° 0 mm 8 mps 730 mmHg 20%
    10:00 +33°C° 0 mm 8 mps 729 mmHg 16%
    11:00 +35°C° 0 mm 9 mps 729 mmHg 15%
    12:00 +37°C° 0 mm 9 mps 728 mmHg 14%
    13:00 +38°C° 0 mm 10 mps 728 mmHg 13%
    14:00 +38°C° 0 mm 11 mps 728 mmHg 14%
    15:00 +37°C° 0 mm 12 mps 727 mmHg 15%
    16:00 +37°C° 0 mm 13 mps 727 mmHg 16%
    17:00 +34°C° 0 mm 13 mps 728 mmHg 17%
    18:00 +32°C° 0 mm 12 mps 728 mmHg 19%
    19:00 +29°C° 0 mm 12 mps 728 mmHg 20%
    20:00 +27°C° 0 mm 11 mps 729 mmHg 22%
    21:00 +26°C° 0 mm 11 mps 730 mmHg 24%
    22:00 +23°C° 0 mm 10 mps 730 mmHg 26%
    23:00 +22°C° 0 mm 9 mps 730 mmHg 27%

    21 December, Thursday

    Time Temperature Precipitation Wind Pressure Humidity
    00:00 +21°C° 0 mm 8 mps 730 mmHg 29%
    01:00 +20°C° 0 mm 7 mps 730 mmHg 30%
    02:00 +18°C° 0 mm 7 mps 730 mmHg 31%
    03:00 +19°C° 0 mm 6 mps 730 mmHg 31%
    04:00 +17°C° 0 mm 5 mps 731 mmHg 32%
    05:00 +19°C° 0 mm 5 mps 731 mmHg 29%
    06:00 +20°C° 0 mm 5 mps 732 mmHg 26%
    07:00 +21°C° 0 mm 5 mps 732 mmHg 24%
    08:00 +22°C° 0 mm 5 mps 732 mmHg 21%
    09:00 +25°C° 0 mm 5 mps 731 mmHg 19%
    10:00 +26°C° 0 mm 5 mps 731 mmHg 16%
    11:00 +27°C° 0 mm 5 mps 730 mmHg 16%
    12:00 +29°C° 0 mm 5 mps 729 mmHg 16%
    13:00 +30°C° 0 mm 5 mps 728 mmHg 15%
    14:00 +33°C° 0 mm 5 mps 728 mmHg 14%
    15:00 +34°C° 0 mm 5 mps 727 mmHg 13%
    16:00 +35°C° 0 mm 6 mps 727 mmHg 11%
    17:00 +33°C° 0 mm 7 mps 727 mmHg 12%
    18:00 +32°C° 0 mm 9 mps 727 mmHg 12%
    19:00 +31°C° 0 mm 11 mps 727 mmHg 12%
    20:00 +28°C° 0 mm 11 mps 728 mmHg 16%
    21:00 +26°C° 0 mm 11 mps 729 mmHg 21%
    22:00 +23°C° 0 mm 11 mps 729 mmHg 25%
    23:00 +21°C° 0 mm 11 mps 730 mmHg 28%

    22 December, Friday

    Time Temperature Precipitation Wind Pressure Humidity
    00:00 +19°C° 0 mm 11 mps 730 mmHg 32%
    01:00 +17°C° 0 mm 10 mps 730 mmHg 35%
    02:00 +17°C° 0 mm 10 mps 730 mmHg 36%
    03:00 +16°C° 0 mm 10 mps 730 mmHg 38%
    04:00 +14°C° 0 mm 10 mps 730 mmHg 39%
    05:00 +16°C° 0 mm 10 mps 731 mmHg 36%
    06:00 +17°C° 0 mm 10 mps 731 mmHg 33%
    07:00 +18°C° 0 mm 10 mps 732 mmHg 30%
    08:00 +19°C° 0 mm 10 mps 732 mmHg 26%
    09:00 +22°C° 0 mm 9 mps 732 mmHg 21%
    10:00 +24°C° 0 mm 9 mps 731 mmHg 17%
    11:00 +26°C° 0 mm 9 mps 731 mmHg 15%
    12:00 +27°C° 0 mm 9 mps 731 mmHg 13%
    13:00 +29°C° 0 mm 9 mps 730 mmHg 11%
    14:00 +29°C° 0 mm 9 mps 730 mmHg 10%
    15:00 +29°C° 0 mm 10 mps 730 mmHg 9%
    16:00 +31°C° 0 mm 10 mps 730 mmHg 9%
    17:00 +28°C° 0 mm 10 mps 730 mmHg 10%
    18:00 +27°C° 0 mm 10 mps 730 mmHg 12%
    19:00 +26°C° 0 mm 10 mps 731 mmHg 13%
    20:00 +23°C° 0 mm 9 mps 731 mmHg 15%
    21:00 +22°C° 0 mm 9 mps 732 mmHg 17%
    22:00 +21°C° 0 mm 9 mps 733 mmHg 19%
    23:00 +20°C° 0 mm 8 mps 733 mmHg 21%
    Show more